User: anonymous   Login
Location: Unspecified
(0.0000°N, 0.0000°E)
Time: 12:36:18
(UTC+00:00)
Language:

Himawari - Orbit

View from above orbital plane
View from above orbital plane
View from above satellite
View from above satellite

Ground track
Ground track

The orbit data is extracted from the following two-line orbital elements,

1 10143U 77065A   18171.50099101 +.00000065 +00000-0 +00000-0 0  9998
2 10143 012.8706 323.0310 0015667 163.5939 017.7481 00.99246857092254
Epoch (UTC): 20 June 2018 12:01:25
Eccentricity: 0.0015667
inclination: 12.8706°
perigee height: 36009 km
apogee height: 36142 km
right ascension of ascending node: 323.0310°
argument of perigee: 163.5939°
revolutions per day: 0.99246857
mean anomaly at epoch: 17.7481°
orbit number at epoch: 9225

The dashed part of the orbit path shows where the satellite is in the earth's shadow,  

DLR